FW1937 Weather Reports


time (UTC)temp
F
wind
direction
speed
knots
gust
knots
rain 1hr
in
rain 24hr
in
rain mn
in
humidity
%
barometer
mb
20260507224018 62 150 5.2 10.4 0.00 0.01 0.00 75 1004.7
20260507223734 62 179 5.2 10.4 0.00 0.01 0.00 71 1004.6
20260507222519 60 155 7.0 12.2 0.00 0.01 0.00 69 1004.7
20260507222018 58 140 6.1 12.2 0.00 0.01 0.00 71 1004.6
20260507221518 57 162 5.2 8.7 0.00 0.01 0.00 72 1004.5
20260507221018 56 173 4.3 7.8 0.00 0.01 0.00 72 1004.6
20260507220518 57 185 3.5 7.0 0.00 0.01 0.00 72 1004.6
20260507215518 57 214 2.6 5.2 0.00 0.01 0.01 73 1004.6
20260507215018 57 215 2.6 4.3 0.00 0.01 0.01 73 1004.5
20260507214736 58 211 1.7 3.5 0.00 0.01 0.01 73 1004.6
20260507214018 58 223 1.7 1.7 0.00 0.01 0.01 73 1004.5
20260507213517 58 223 1.7 3.5 0.00 0.01 0.01 73 1004.5
20260507213018 59 223 0.9 3.5 0.00 0.01 0.01 73 1004.5
20260507212518 59 225 0.0 2.6 0.00 0.01 0.01 74 1004.5
20260507212018 60 225 0.0 1.7 0.00 0.01 0.01 74 1004.5
20260507211517 60 225 0.0 1.7 0.00 0.01 0.01 74 1004.4
20260507211030 60 225 0.0 1.7 0.00 0.01 0.01 75 1004.4
20260507210518 60 225 0.0 1.7 0.00 0.01 0.01 75 1004.3
20260507210017 60 225 0.9 2.6 0.00 0.01 0.01 76 1004.2
20260507205517 60 225 1.7 2.6 0.00 0.01 0.01 76 1004.1
20260507205017 61 232 0.9 2.6 0.00 0.01 0.01 77 1004.2
20260507204517 61 215 0.9 2.6 0.00 0.01 0.01 78 1004.1
20260507204017 62 215 0.9 2.6 0.00 0.01 0.01 78 1004.0
20260507203518 62 214 0.0 1.7 0.00 0.01 0.01 79 1003.9
20260507202517 63 214 0.9 1.7 0.00 0.01 0.01 79 1003.9
20260507201517 64 213 0.0 2.6 0.00 0.01 0.01 80 1003.7
20260507201017 64 213 0.9 2.6 0.00 0.01 0.01 80 1003.8
20260507200518 64 213 1.7 3.5 0.00 0.01 0.01 80 1003.7
20260507200017 65 202 1.7 3.5 0.00 0.01 0.01 81 1003.7
20260507195517 65 202 1.7 5.2 0.00 0.01 0.01 81 1003.6
20260507195018 65 197 1.7 5.2 0.00 0.01 0.01 82 1003.5
20260507194517 65 163 1.7 4.3 0.00 0.01 0.01 82 1003.4
20260507194010 66 148 1.7 6.1 0.00 0.01 0.01 83 1003.3
20260507193509 66 148 2.6 6.1 0.00 0.01 0.01 85 1003.2
20260507193009 66 106 2.6 6.1 0.00 0.01 0.01 85 1003.3
20260507192734 66 118 1.7 6.1 0.00 0.01 0.01 85 1003.3
20260507192009 67 79 0.0 2.6 0.00 0.01 0.01 85 1003.3
20260507191510 67 78 0.0 0.0 0.00 0.01 0.01 85 1003.4
20260507191008 67 78 0.0 0.0 0.00 0.01 0.01 86 1003.3
20260507190503 68 78 0.0 0.0 0.00 0.01 0.01 86 1003.3
20260507190000 68 78 0.0 0.0 0.00 0.01 0.01 87 1003.3
20260507185500 68 78 0.0 0.0 0.00 0.01 0.01 87 1003.3
20260507185000 68 78 0.0 0.0 0.00 0.01 0.01 87 1003.3
20260507184500 69 78 0.0 0.0 0.00 0.01 0.01 88 1003.4
20260507184227 69 78 0.0 0.0 0.00 0.01 0.01 90 1003.3
20260507183500 69 78 0.0 1.7 0.00 0.01 0.01 90 1003.3
20260507183001 69 78 0.0 1.7 0.00 0.01 0.01 90 1003.3
20260507182513 69 78 0.9 1.7 0.00 0.01 0.01 90 1003.2
20260507182001 69 78 0.0 1.7 0.00 0.01 0.01 90 1003.2
20260507181500 69 78 0.0 3.5 0.00 0.01 0.01 90 1003.2
20260507181000 69 78 0.9 3.5 0.00 0.01 0.01 90 1003.2
20260507180501 69 78 1.7 3.5 0.00 0.01 0.01 90 1003.1
20260507180001 70 78 1.7 3.5 0.00 0.01 0.01 90 1003.1
20260507175500 70 55 0.9 5.2 0.00 0.01 0.01 90 1003.0
20260507175000 70 39 0.9 5.2 0.00 0.01 0.01 90 1003.0
20260507174720 70 86 0.9 7.0 0.00 0.01 0.01 90 1003.1
20260507173956 70 50 1.7 7.0 0.00 0.01 0.01 90 1003.1
20260507173456 70 88 2.6 7.8 0.00 0.01 0.01 90 1003.1
20260507172957 71 99 2.6 7.8 0.00 0.01 0.01 90 1003.1
20260507172456 71 102 1.7 5.2 0.00 0.01 0.01 89 1003.1
20260507171957 71 34 1.7 5.2 0.00 0.01 0.01 89 1003.1
20260507171457 71 31 1.7 5.2 0.00 0.01 0.01 89 1003.1
20260507170956 71 82 1.7 5.2 0.00 0.01 0.01 88 1003.1
20260507170509 71 26 1.7 7.8 0.00 0.01 0.01 88 1003.1
20260507170219 71 25 1.7 7.8 0.00 0.01 0.01 88 1003.2
20260507165457 72 56 1.7 3.5 0.00 0.01 0.01 87 1003.3
20260507164956 72 36 1.7 5.2 0.00 0.01 0.01 87 1003.3
20260507164457 72 91 1.7 4.3 0.00 0.01 0.01 86 1003.3
20260507164218 71 83 1.7 4.3 0.00 0.01 0.01 86 1003.3
20260507163457 71 102 1.7 7.0 0.00 0.01 0.01 86 1003.1
20260507162956 71 55 2.6 7.0 0.00 0.01 0.01 86 1003.2
20260507162457 71 96 2.6 7.0 0.00 0.01 0.01 86 1003.2
20260507161957 71 90 1.7 7.0 0.00 0.01 0.01 86 1003.0
20260507161457 71 54 2.6 7.8 0.00 0.01 0.01 86 1003.0
20260507160957 71 55 2.6 7.8 0.00 0.01 0.01 86 1003.1
20260507160458 71 26 2.6 7.0 0.00 0.01 0.01 86 1003.0
20260507155957 71 103 2.6 8.7 0.00 0.01 0.01 86 1003.0
20260507155456 71 11 2.6 8.7 0.00 0.01 0.01 85 1003.2
20260507155224 71 44 3.5 9.6 0.00 0.01 0.01 85 1003.2
20260507154456 71 14 3.5 9.6 0.00 0.01 0.01 84 1003.2
20260507153957 71 31 3.5 9.6 0.00 0.01 0.01 80 1003.2
20260507153719 71 323 3.5 9.6 0.00 0.01 0.01 80 1003.7
20260507153214 70 18 3.5 8.7 0.00 0.01 0.01 80 1003.2
20260507152456 69 17 3.5 10.4 0.00 0.01 0.01 80 1003.3
20260507151957 69 24 3.5 10.4 0.00 0.01 0.01 80 1003.3
20260507151457 69 344 3.5 8.7 0.00 0.01 0.01 80 1003.3
20260507150958 70 38 4.3 8.7 0.00 0.01 0.01 81 1003.2
20260507150457 70 355 4.3 11.3 0.00 0.01 0.01 81 1003.2
20260507145957 71 11 3.5 11.3 0.00 0.01 0.01 80 1003.2
20260507145457 70 355 3.5 7.8 0.00 0.01 0.01 80 1003.2
20260507144957 70 25 3.5 9.6 0.00 0.01 0.01 80 1003.4
20260507144457 70 342 3.5 9.6 0.00 0.01 0.01 80 1003.4
20260507143956 70 11 4.3 7.8 0.00 0.01 0.01 80 1003.5
20260507143457 70 11 4.3 10.4 0.00 0.01 0.01 80 1003.6
20260507142958 70 37 4.3 10.4 0.00 0.01 0.01 80 1003.6
20260507142459 70 317 4.3 10.4 0.00 0.01 0.01 80 1003.6
20260507141958 70 39 4.3 10.4 0.00 0.01 0.01 80 1003.7
20260507140957 70 5 5.2 9.6 0.00 0.01 0.01 79 1003.7
20260507140457 70 14 4.3 9.6 0.00 0.01 0.01 80 1003.8
20260507135958 70 5 4.3 11.3 0.00 0.01 0.01 79 1003.9
20260507135457 69 0 4.3 11.3 0.00 0.01 0.01 79 1004.0
20260507134957 70 327 4.3 8.7 0.00 0.01 0.01 79 1004.0
20260507134456 69 339 3.5 8.7 0.00 0.01 0.01 79 1004.0
20260507133957 69 5 3.5 8.7 0.00 0.01 0.01 79 1004.1
20260507133723 69 31 3.5 9.6 0.00 0.01 0.01 79 1004.0
20260507133212 69 20 3.5 10.4 0.00 0.01 0.01 78 1004.0
20260507132444 69 5 4.3 10.4 0.00 0.01 0.01 79 1004.1
20260507131944 68 17 4.3 10.4 0.00 0.01 0.01 79 1004.1
20260507131444 68 42 4.3 10.4 0.00 0.01 0.01 79 1004.2
20260507130944 68 348 5.2 10.4 0.00 0.02 0.01 79 1004.3
20260507130443 68 327 5.2 10.4 0.00 0.02 0.01 79 1004.4
20260507125943 69 14 5.2 9.6 0.00 0.02 0.01 79 1004.5
20260507125443 69 13 5.2 9.6 0.00 0.02 0.01 79 1004.4
20260507125158 69 9 4.3 10.4 0.00 0.02 0.01 80 1004.5
20260507124444 69 348 3.5 10.4 0.00 0.02 0.01 80 1004.6
20260507123944 69 5 3.5 11.3 0.00 0.02 0.01 79 1004.6
20260507123443 69 350 3.5 11.3 0.00 0.02 0.01 79 1004.6
20260507122943 69 21 4.3 11.3 0.00 0.03 0.01 78 1004.7
20260507122443 69 33 4.3 11.3 0.00 0.03 0.01 78 1004.6
20260507121943 69 355 3.5 10.4 0.00 0.04 0.01 77 1004.6
20260507121444 69 355 4.3 10.4 0.00 0.04 0.01 76 1004.7
20260507120943 68 11 4.3 9.6 0.00 0.05 0.01 76 1004.7
20260507120443 68 5 4.3 9.6 0.00 0.06 0.01 76 1004.7
20260507115944 68 17 3.5 8.7 0.00 0.06 0.01 75 1004.8
20260507115444 69 16 3.5 9.6 0.00 0.06 0.01 74 1004.9
20260507114944 69 5 3.5 9.6 0.00 0.06 0.01 73 1004.9
20260507114456 69 17 3.5 8.7 0.00 0.06 0.01 78 1004.9
20260507114204 69 338 2.6 8.7 0.00 0.06 0.01 77 1004.9
20260507113444 68 28 2.6 7.8 0.00 0.06 0.01 76 1004.9
20260507112443 67 314 3.5 7.8 0.00 0.06 0.01 74 1005.0
20260507111944 67 355 3.5 8.7 0.00 0.06 0.01 73 1005.1
20260507111444 67 17 3.5 8.7 0.00 0.06 0.01 73 1005.2
20260507110944 67 18 3.5 7.8 0.00 0.06 0.01 72 1005.2
20260507110444 66 0 2.6 6.1 0.00 0.06 0.01 72 1005.3
20260507105944 66 350 2.6 4.3 0.00 0.06 0.01 71 1005.5
20260507105707 66 5 2.6 5.2 0.00 0.06 0.01 71 1005.8
20260507104944 66 348 2.6 5.2 0.00 0.06 0.01 70 1005.8
20260507104443 66 350 2.6 7.0 0.00 0.06 0.01 71 1005.8
20260507103943 65 36 2.6 7.0 0.00 0.06 0.01 71 1005.9
20260507103444 65 21 1.7 5.2 0.00 0.06 0.01 70 1006.0
20260507102944 65 355 1.7 2.6 0.00 0.06 0.01 70 1006.0
20260507102443 65 0 1.7 5.2 0.00 0.06 0.01 71 1006.1
20260507101944 65 11 1.7 5.2 0.00 0.06 0.01 70 1006.2
20260507101457 65 351 2.6 4.3 0.00 0.06 0.01 71 1006.3
20260507101220 65 27 2.6 4.3 0.00 0.06 0.01 70 1006.3
20260507100723 65 355 1.7 4.3 0.00 0.06 0.01 69 1006.3
20260507095943 65 5 1.7 4.3 0.00 0.06 0.01 69 1006.3
20260507095444 65 325 1.7 4.3 0.00 0.06 0.01 68 1006.4
20260507094943 65 348 1.7 4.3 0.00 0.06 0.01 67 1006.5
20260507094703 64 28 1.7 4.3 0.00 0.06 0.01 66 1006.5
20260507093939 64 54 0.9 4.3 0.00 0.06 0.01 66 1006.6
20260507093437 64 19 1.7 3.5 0.00 0.06 0.01 65 1006.6
20260507092938 63 16 0.9 3.5 0.00 0.06 0.01 64 1006.7
20260507092438 63 72 0.9 3.5 0.00 0.06 0.01 63 1006.7
20260507091938 62 342 2.6 6.1 0.00 0.06 0.01 62 1006.8
20260507091437 62 92 1.7 6.1 0.00 0.06 0.01 61 1006.8
20260507090937 62 98 1.7 5.2 0.00 0.06 0.01 62 1006.7
20260507090451 61 99 2.6 5.2 0.00 0.06 0.01 62 1006.8
20260507085938 60 102 1.7 5.2 0.00 0.07 0.01 62 1006.8
20260507085438 60 188 1.7 5.2 0.00 0.07 0.01 64 1006.8
20260507084938 59 125 1.7 7.0 0.00 0.07 0.01 64 1006.8
20260507083938 58 117 0.0 3.5 0.00 0.07 0.01 66 1006.8
20260507083703 57 204 0.9 3.5 0.00 0.08 0.01 66 1006.8
20260507082937 57 204 1.7 3.5 0.00 0.08 0.01 67 1006.8
20260507082438 56 40 0.9 2.6 0.00 0.08 0.01 67 1006.9
20260507082213 56 138 1.7 3.5 0.00 0.08 0.01 68 1006.9
20260507081437 55 137 1.7 3.5 0.00 0.08 0.01 68 1007.0
20260507080937 55 134 1.7 3.5 0.00 0.08 0.01 68 1007.0
20260507080421 54 158 1.7 3.5 0.00 0.08 0.01 68 1007.0
20260507075921 54 207 0.9 2.6 0.00 0.09 0.01 68 1007.0
20260507075417 53 232 0.9 1.7 0.00 0.11 0.01 68 1007.0
20260507074916 53 233 0.9 1.7 0.00 0.11 0.01 69 1007.1
20260507074417 52 233 0.9 1.7 0.00 0.11 0.01 68 1007.2
20260507073915 52 240 0.9 4.3 0.00 0.11 0.01 69 1007.2
20260507073413 52 240 1.7 4.3 0.00 0.11 0.01 68 1007.2
20260507072913 51 194 1.7 5.2 0.00 0.11 0.01 69 1007.3
20260507072412 51 157 1.7 5.2 0.00 0.11 0.01 69 1007.3
20260507071912 51 173 0.9 4.3 0.00 0.11 0.01 69 1007.2
20260507071413 50 222 1.7 4.3 0.00 0.11 0.01 69 1007.3
20260507070913 50 220 1.7 4.3 0.00 0.11 0.01 69 1007.4
20260507070412 50 215 2.6 4.3 0.00 0.11 0.01 69 1007.3
20260507065912 49 208 2.6 4.3 0.00 0.11 0.01 69 1007.4
20260507065412 49 213 1.7 3.5 0.00 0.11 0.01 69 1007.4
20260507064913 49 238 1.7 3.5 0.00 0.11 0.01 69 1007.4
20260507064413 49 240 0.9 3.5 0.00 0.11 0.01 69 1007.4
20260507063913 48 212 0.0 0.0 0.00 0.11 0.01 69 1007.4
20260507063412 48 213 0.0 2.6 0.01 0.11 0.01 69 1007.5
20260507062912 47 223 0.9 2.6 0.01 0.11 0.01 69 1007.5
20260507062412 47 223 1.7 2.6 0.01 0.11 0.01 69 1007.4
20260507062131 47 224 1.7 2.6 0.01 0.11 0.01 69 1007.4
20260507061413 47 229 1.7 2.6 0.01 0.11 0.01 69 1007.4
20260507060912 46 240 1.7 3.5 0.01 0.11 0.01 69 1007.6
20260507060413 46 229 1.7 3.5 0.01 0.11 0.01 69 1007.6
20260507055912 46 228 0.9 2.6 0.01 0.11 0.01 69 1007.6
20260507055413 45 226 0.0 2.6 0.01 0.11 0.01 69 1007.6
20260507054912 45 217 0.0 2.6 0.01 0.11 0.01 69 1007.6
20260507054413 45 219 0.0 1.7 0.01 0.11 0.01 69 1007.6
20260507054133 45 217 0.0 0.0 0.01 0.11 0.01 69 1007.6
20260507053412 45 217 0.0 0.0 0.00 0.10 0.00 69 1007.6
20260507052912 45 217 0.0 0.0 0.00 0.10 0.00 69 1007.4
20260507052413 45 217 0.0 0.0 0.00 0.10 0.00 69 1007.5
20260507051913 45 217 0.0 1.7 0.00 0.10 0.00 69 1007.5
20260507051413 45 217 0.0 1.7 0.00 0.11 0.00 69 1007.5
20260507050914 45 217 0.9 3.5 0.00 0.12 0.00 69 1007.5
20260507050638 45 217 1.7 3.5 0.00 0.12 0.00 69 1007.5
20260507045912 45 250 0.9 2.6 0.00 0.13 0.00 69 1007.5
20260507045633 45 254 0.9 2.6 0.00 0.14 0.00 69 1007.5
20260507044413 45 228 0.0 0.0 0.00 0.16 0.00 68 1007.3
20260507043912 45 228 0.0 0.0 0.00 0.17 0.00 68 1007.4
20260507043412 46 228 0.0 0.0 0.00 0.20 0.00 69 1007.4
20260507043130 46 228 0.0 0.0 0.00 0.21 0.00 69 1007.4
20260507042413 46 228 0.0 0.0 0.00 0.23 0.00 69 1007.4
20260507041912 46 228 0.0 2.6 0.00 0.23 0.00 69 1007.5
20260507041411 46 228 0.0 2.6 0.00 0.24 0.00 69 1007.4
20260507040910 46 228 0.9 1.7 0.00 0.24 0.00 69 1007.5
20260507040404 46 228 0.9 2.6 0.00 0.24 0.00 69 1007.5
20260507035404 46 227 0.9 1.7 0.00 0.24 0.00 69 1007.6
20260507034904 46 227 0.0 1.7 0.00 0.24 0.00 69 1007.7
20260507033903 46 227 0.9 2.6 0.00 0.24 0.00 69 1007.7
20260507033404 46 227 0.9 2.6 0.00 0.24 0.00 69 1007.5
20260507032903 46 228 0.0 0.9 0.00 0.24 0.00 69 1007.6
20260507032404 46 228 0.9 2.6 0.00 0.24 0.00 69 1007.7
20260507031903 46 228 0.9 2.6 0.00 0.24 0.00 69 1007.6
20260507031625 46 228 1.7 2.6 0.00 0.24 0.00 69 1007.6
20260507030917 46 229 0.9 3.5 0.00 0.24 0.00 69 1007.7
20260507030404 46 232 0.9 3.5 0.00 0.24 0.00 69 1007.7
20260507025904 46 231 0.9 2.6 0.00 0.24 0.00 68 1007.7
20260507025403 46 232 0.9 2.6 0.00 0.24 0.00 68 1007.7
20260507024903 46 241 0.0 2.6 0.00 0.24 0.00 69 1007.6
20260507024619 47 243 0.0 0.0 0.00 0.24 0.00 69 1007.5
20260507024127 47 243 0.0 0.0 0.00 0.24 0.00 69 1007.6
20260507023358 47 242 0.0 0.0 0.00 0.24 0.00 69 1007.7
20260507023118 47 242 0.0 0.0 0.00 0.24 0.00 69 1007.8
20260507022347 47 242 0.0 0.0 0.00 0.24 0.00 69 1007.7
20260507022108 47 242 0.0 0.0 0.00 0.24 0.00 68 1007.8
20260507021606 47 242 0.0 0.9 0.00 0.24 0.00 69 1007.8
20260507020844 47 242 0.0 0.9 0.00 0.24 0.00 69 1007.8
20260507020343 47 242 0.0 1.7 0.00 0.24 0.00 69 1007.7
20260507015843 47 243 0.0 1.7 0.00 0.24 0.00 69 1007.8
20260507015343 47 243 0.0 0.9 0.00 0.24 0.00 69 1007.8
20260507014844 47 243 0.9 1.7 0.00 0.24 0.00 69 1007.8
20260507014344 47 243 0.9 2.6 0.00 0.24 0.00 69 1007.9
20260507013843 47 244 0.9 2.6 0.00 0.24 0.00 69 1008.0
20260507013343 48 244 0.9 1.7 0.00 0.24 0.00 69 1008.0
20260507013107 48 247 1.7 3.5 0.00 0.24 0.00 69 1007.9
20260507012343 47 249 0.9 3.5 0.00 0.24 0.00 69 1008.0
20260507011844 47 191 0.0 1.7 0.00 0.24 0.00 69 1008.1
20260507011342 47 190 0.9 2.6 0.00 0.24 0.00 69 1008.0
20260507011107 48 190 0.9 3.5 0.00 0.24 0.00 69 1008.0
20260507010352 48 190 0.9 3.5 0.00 0.24 0.00 69 1008.0
20260507005839 48 211 0.9 2.6 0.00 0.24 0.00 69 1008.0
20260507005340 48 211 0.0 2.6 0.00 0.24 0.00 69 1008.0
20260507004340 48 211 0.9 2.6 0.00 0.24 0.00 69 1008.2
20260507003853 48 206 0.9 2.6 0.00 0.24 0.00 69 1008.2
20260507003340 48 205 1.7 3.5 0.00 0.24 0.00 69 1008.3
20260507002839 48 205 1.7 3.5 0.00 0.24 0.00 69 1008.3
20260507002335 48 267 0.9 2.6 0.00 0.24 0.00 69 1008.3
20260507002102 48 213 0.0 0.0 0.00 0.24 0.00 69 1008.3
20260507001335 48 213 0.0 0.0 0.00 0.24 0.00 69 1008.4
20260507000835 48 213 0.0 0.0 0.00 0.24 0.00 69 1008.3
20260507000558 48 213 0.0 0.0 0.00 0.24 0.00 69 1008.5
20260507000056 49 213 0.0 0.0 0.00 0.24 0.00 69 1008.5
20260506235335 49 214 0.0 0.0 0.00 0.24 0.00 69 1008.5
20260506234843 49 214 0.0 1.7 0.00 0.24 0.00 69 1008.5
20260506234327 49 214 0.9 1.7 0.00 0.24 0.00 69 1008.5
20260506233827 49 212 0.9 2.6 0.00 0.24 0.00 69 1008.5
20260506233320 49 211 0.9 2.6 0.00 0.24 0.00 69 1008.7
20260506232822 49 211 0.0 0.9 0.00 0.24 0.00 69 1008.8
20260506232319 49 211 0.0 0.9 0.00 0.24 0.00 69 1008.7
20260506231823 49 211 0.9 1.7 0.00 0.24 0.00 69 1008.7
20260506231331 49 211 0.9 1.7 0.00 0.24 0.00 69 1008.8
20260506230823 49 211 0.9 1.7 0.00 0.24 0.00 69 1008.7
20260506230540 49 210 0.9 2.6 0.00 0.24 0.00 69 1008.7
20260506225822 49 210 0.9 2.6 0.00 0.24 0.00 69 1008.7
20260506225312 49 210 0.0 1.7 0.00 0.24 0.00 69 1008.7
20260506224816 50 210 0.9 1.7 0.00 0.24 0.00 69 1008.7